Location: College Park
(38.9810°N, 76.9370°W)
Time: 15:13:48
(UTC-05:00)

OTV 5 (USA 277) - Pass Details

Date: 05 January 2018
Orbit: 404 x 417 km, 43.0° (Epoch: 07 September)

Event Time Altitude Azimuth Distance (km) Brightness Sun altitude
Exits shadow 05:13:38 21° 54° (NE) 965 ? -25.2°
Drops below altitude 10° 05:14:59 10° 66° (ENE) 1,456 ? -25.0°
Sets 05:17:09 0° 74° (ENE) 2,317 ? -24.5°
